SCP
-0 -0 0 0 0 -0 -0 -0 -0 0 -0 0 0 -0 -0 -0 -0 -0 -0 -0 -0 -0 -0 -0 -0 -0 -0 -0 -0 -0 0 0
0 0 0 0 0 -0 0 0 -0 -0 0 -0 0 0 -0 -0 -0 -0 0 -0 -0 -0 -0 -0 -0 -0 -0 -0 -0 -0 0 0
0 0 0 0 0 -0 0 -0 0 -0 -0 0 0 -1 -0 -0 -0 -0 0 0 0 -0 -0 -0 -0 -0 -0 -0 -0 -0 0 -0
0 -0 0 0 0 0 -0 0 -0 -0 -0 0 0 -0 -0 -0 -0 -0 0 0 0 -0 -0 -0 -0 -0 -0 -0 -0 -0 -0 -0
0 -0 0 0 0 0 -0 0 -0 0 -0 0 0 0 0 -0 -0 -0 0 0 0 0 -0 -0 -0 -0 -0 -0 -0 -0 -0 -0
0 0 0 0 0 0 -0 -0 -0 -0 0 -0 -0 0 0 -0 -0 -0 0 0 0 0 0 0 -0 -0 -0 -0 -0 -0 -0 -0
0 -0 0 -0 0 -0 -0 -0 -0 -0 0 -0 0 0 0 -0 -0 -0 0 0 0 0 0 -0 -0 -0 -0 -0 -0 -0 -0 -0
0 -0 0 0 -0 0 0 0 0 0 -0 -0 -0 0 -0 -0 -0 -0 -0 -0 -0 -0 -0 -0 -0 -0 -0 0 0 0 -0 -0
0 0 0 0 0 0 0 0 0 0 0 -0 0 -0 -0 0 -0 -0 -0 -0 -0 -0 -0 -0 -0 -0 -0 0 0 0 -0 -0
0 0 -0 0 -0 0 0 0 0 0 0 0 -0 -0 0 0 -0 -0 -0 -0 -0 -0 -0 -0 -0 -0 -0 -0 -0 -0 0 -0
0 0 0 0 0 0 0 0 0 -0 0 0 -0 0 -0 0 0 -0 -0 -0 -0 -0 -0 -0 -0 -0 -0 -0 -0 -0 -0 -0
-0 0 0 -0 0 0 0 0 0 -0 0 0 -0 0 -0 0 0 -0 -0 -0 -0 -0 -0 -0 -0 -0 -0 -0 -0 -0 -0 -0
0 -0 0 -0 0 0 0 -0 -0 -0 -0 0 0 0 0 0 0 0 0 -0 -0 -0 -0 -0 -0 0 0 -0 -0 0 0 -0
-0 0 0 0 -0 -0 0 -0 -0 -0 -0 -0 -0 0 -0 0 0 0 0 0 -0 -0 -0 0 0 0 0 0 0 0 0 0
0 0 -0 0 0 0 0 0 0 -0 0 0 -0 0 0 0 -0 0 0 0 -0 -0 -0 0 1 1 0 0 0 0 0 0
-0 -0 -0 0 -0 -0 -0 0 0 0 0 0 0 0 0 0 0 0 0 0 0 0 0 0 1 1 1 0 0 0 0 0
0 0 0 0 0 0 0 0 0 0 0 0 0 0 0 0 0 0 1 1 1 1 0 1 2 1 1 0 0 0 0 0
0 0 0 0 0 0 0 0 0 0 0 -0 0 0 0 0 1 1 2 2 1 2 2 2 2 2 1 0 0 0 0 1
0 0 0 0 0 0 0 0 0 0 0 0 0 0 0 0 1 1 2 4 4 3 7 4 3 3 2 1 1 1 0 1
0 0 0 0 0 0 -0 -0 -0 0 0 0 0 0 0 0 0 0 0 1 1 3 5 7 5 4 2 2 1 1 1 1
Wind_Speed_500mb
9 9 12 16 22 40 73 60 51 7 32 16 17 55 32 47 46 37 43 43 42 41 41 39 38 37 37 37 37 37 36 35
7 13 10 26 36 34 18 28 31 42 14 33 38 36 50 49 35 46 46 44 41 41 40 39 39 38 38 38 37 36 35 34
9 18 13 21 60 14 15 6 16 36 17 14 42 42 52 39 28 52 48 43 41 40 39 39 39 38 37 37 36 35 33 32
13 4 18 28 30 29 5 17 10 41 31 15 49 53 46 28 31 38 44 43 41 39 38 37 37 38 37 36 36 34 33 30
25 31 19 22 58 22 17 31 14 38 13 30 49 55 39 46 37 30 32 41 41 40 39 38 37 37 37 35 34 33 31 29
28 20 1 31 58 52 68 28 26 50 18 33 62 56 43 55 46 32 23 38 40 40 39 39 38 36 35 34 33 31 30 27
24 18 17 62 22 48 33 9 5 14 59 70 68 59 57 58 46 30 22 38 40 39 38 38 37 35 34 33 31 30 28 26
19 17 17 19 45 54 12 29 35 31 57 68 68 63 64 63 52 37 27 28 37 39 40 39 37 34 32 31 30 29 28 25
45 48 42 11 14 25 37 27 55 27 30 52 66 61 62 64 56 46 34 31 26 32 36 38 36 34 33 31 30 30 29 27
57 56 32 6 31 7 5 25 67 63 50 34 45 60 66 60 63 54 49 37 31 26 24 30 24 25 28 31 31 31 30 30
66 58 36 8 11 12 34 47 71 71 56 63 60 58 62 56 59 60 57 48 49 42 35 33 31 24 23 33 27 23 27 28
59 49 30 8 12 27 37 56 73 62 73 66 61 62 59 56 60 64 60 57 60 52 45 43 46 41 31 28 24 20 21 19
19 30 13 39 13 11 30 53 66 74 77 76 71 68 64 59 59 60 63 64 61 58 56 57 53 50 41 32 33 32 32 31
17 19 18 11 14 16 26 66 66 76 85 82 82 83 64 64 59 60 63 70 65 62 64 59 69 58 55 53 55 52 47 42
20 30 16 17 15 15 50 45 24 66 76 89 82 85 71 75 71 70 71 70 72 71 70 67 63 78 67 67 63 62 54 58
16 21 31 17 20 21 57 50 28 25 41 75 83 87 85 84 82 82 82 82 78 77 71 69 61 70 75 63 60 54 55 49
14 19 14 6 4 11 14 12 26 35 21 22 34 71 80 87 88 85 85 84 87 85 80 75 70 68 76 79 73 66 62 57
17 18 9 15 8 11 12 15 30 41 42 35 30 10 50 90 95 94 93 91 94 96 90 86 82 74 75 74 76 72 66 65
17 17 14 12 16 14 18 27 35 78 81 90 84 93 88 56 6 57 91 96 96 99 101 95 92 83 75 73 71 70 67 73
7 8 2 10 6 13 34 43 51 74 81 76 84 85 96 97 93 48 21 40 41 69 102 105 103 98 91 86 85 86 83 76
Wind_Direction_500mb
167 133 160 173 184 248 272 279 308 81 57 67 106 127 140 161 149 155 152 145 144 142 139 137 135 134 132 133 132 129 129 128
179 197 229 151 192 180 291 312 354 104 59 102 133 137 150 149 149 159 151 148 145 142 141 140 139 139 139 138 137 136 136 136
284 276 143 154 187 220 171 143 76 99 114 80 129 143 147 145 167 162 150 149 146 144 144 144 143 142 143 144 145 143 145 142
297 343 140 152 160 172 76 353 131 105 115 98 139 145 143 148 163 145 151 151 151 149 149 148 147 148 150 152 151 152 153 150
284 292 119 186 175 168 185 134 215 135 117 137 152 148 140 158 162 155 159 158 157 156 154 154 154 155 155 158 158 159 160 159
283 303 107 143 159 177 151 205 150 156 156 158 155 157 151 171 169 174 176 170 165 163 162 162 161 161 161 163 164 167 168 168
278 290 341 163 132 171 183 5 299 295 153 154 156 158 158 168 172 181 175 177 173 171 170 169 167 167 167 169 171 175 176 177
270 292 322 65 113 160 155 120 29 79 138 150 156 163 168 167 171 184 186 179 185 179 179 176 176 175 175 176 178 180 184 185
281 287 303 54 74 155 133 122 113 97 122 157 164 169 175 177 186 194 196 198 183 184 188 184 182 182 185 184 185 186 191 190
277 286 305 29 141 166 70 122 135 141 143 170 188 184 184 184 185 192 194 201 191 196 195 194 163 192 199 198 195 199 200 194
270 278 283 216 290 215 146 152 160 197 212 186 188 207 194 189 191 192 195 198 198 193 196 215 195 210 218 197 190 200 203 198
264 277 290 284 213 288 177 159 171 182 190 193 191 202 204 194 194 195 193 195 199 197 193 204 213 215 225 197 200 216 216 218
274 261 258 279 286 257 202 182 179 191 183 178 188 198 204 195 197 197 194 196 202 203 196 206 202 209 219 207 212 217 225 227
286 298 258 246 256 265 236 172 187 194 186 184 189 197 191 195 200 194 196 199 205 210 210 213 212 207 204 199 208 206 216 223
264 245 228 201 235 261 277 280 201 198 196 189 194 197 193 194 199 201 201 202 208 214 221 222 221 213 216 209 209 214 212 224
243 258 234 197 213 230 243 260 259 272 188 192 193 197 198 199 202 205 206 208 211 218 223 225 223 217 217 214 215 218 222 224
309 321 38 108 124 232 259 340 340 333 239 198 222 211 206 204 204 208 209 211 211 213 222 220 218 220 214 219 215 217 215 223
310 316 343 312 349 352 354 325 318 318 317 328 243 21 225 209 206 208 214 217 215 214 218 221 220 223 223 220 219 220 218 217
263 293 331 1 350 333 304 301 318 39 46 42 38 36 34 44 312 223 217 218 220 218 217 221 225 221 222 223 221 223 222 219
307 48 272 61 290 351 40 53 37 35 34 36 33 33 39 38 38 32 305 263 252 229 220 221 222 222 219 221 220 225 226 221
Wind_Speed_850mb
9 9 12 16 22 40 73 60 51 7 32 16 17 55 32 47 46 37 43 43 42 41 41 39 38 37 37 37 37 37 36 35
7 13 10 26 36 34 18 28 31 42 14 33 38 36 50 49 35 46 46 44 41 41 40 39 39 38 38 38 37 36 35 34
9 18 13 21 60 14 15 6 16 36 17 14 42 42 52 39 28 52 48 43 41 40 39 39 39 38 37 37 36 35 33 32
13 4 18 28 30 29 5 17 10 41 31 15 49 53 46 28 31 38 44 43 41 39 38 37 37 38 37 36 36 34 33 30
25 31 19 22 58 22 17 31 14 38 13 30 49 55 39 46 37 30 32 41 41 40 39 38 37 37 37 35 34 33 31 29
28 20 1 31 58 52 68 28 26 50 18 33 62 56 43 55 46 32 23 38 40 40 39 39 38 36 35 34 33 31 30 27
24 18 17 62 22 48 33 9 5 14 59 70 68 59 57 58 46 30 22 38 40 39 38 38 37 35 34 33 31 30 28 26
19 17 17 19 45 54 12 29 35 31 57 68 68 63 64 63 52 37 27 28 37 39 40 39 37 34 32 31 30 29 28 25
45 48 42 11 14 25 37 27 55 27 30 52 66 61 62 64 56 46 34 31 26 32 36 38 36 34 33 31 30 30 29 27
57 56 32 6 31 7 5 25 67 63 50 34 45 60 66 60 63 54 49 37 31 26 24 30 24 25 28 31 31 31 30 30
66 58 36 8 11 12 34 47 71 71 56 63 60 58 62 56 59 60 57 48 49 42 35 33 31 24 23 33 27 23 27 28
59 49 30 8 12 27 37 56 73 62 73 66 61 62 59 56 60 64 60 57 60 52 45 43 46 41 31 28 24 20 21 19
19 30 13 39 13 11 30 53 66 74 77 76 71 68 64 59 59 60 63 64 61 58 56 57 53 50 41 32 33 32 32 31
17 19 18 11 14 16 26 66 66 76 85 82 82 83 64 64 59 60 63 70 65 62 64 59 69 58 55 53 55 52 47 42
20 30 16 17 15 15 50 45 24 66 76 89 82 85 71 75 71 70 71 70 72 71 70 67 63 78 67 67 63 62 54 58
16 21 31 17 20 21 57 50 28 25 41 75 83 87 85 84 82 82 82 82 78 77 71 69 61 70 75 63 60 54 55 49
14 19 14 6 4 11 14 12 26 35 21 22 34 71 80 87 88 85 85 84 87 85 80 75 70 68 76 79 73 66 62 57
17 18 9 15 8 11 12 15 30 41 42 35 30 10 50 90 95 94 93 91 94 96 90 86 82 74 75 74 76 72 66 65
17 17 14 12 16 14 18 27 35 78 81 90 84 93 88 56 6 57 91 96 96 99 101 95 92 83 75 73 71 70 67 73
7 8 2 10 6 13 34 43 51 74 81 76 84 85 96 97 93 48 21 40 41 69 102 105 103 98 91 86 85 86 83 76
Wind_Direction_850mb
167 133 160 173 184 248 272 279 308 81 57 67 106 127 140 161 149 155 152 145 144 142 139 137 135 134 132 133 132 129 129 128
179 197 229 151 192 180 291 312 354 104 59 102 133 137 150 149 149 159 151 148 145 142 141 140 139 139 139 138 137 136 136 136
284 276 143 154 187 220 171 143 76 99 114 80 129 143 147 145 167 162 150 149 146 144 144 144 143 142 143 144 145 143 145 142
297 343 140 152 160 172 76 353 131 105 115 98 139 145 143 148 163 145 151 151 151 149 149 148 147 148 150 152 151 152 153 150
284 292 119 186 175 168 185 134 215 135 117 137 152 148 140 158 162 155 159 158 157 156 154 154 154 155 155 158 158 159 160 159
283 303 107 143 159 177 151 205 150 156 156 158 155 157 151 171 169 174 176 170 165 163 162 162 161 161 161 163 164 167 168 168
278 290 341 163 132 171 183 5 299 295 153 154 156 158 158 168 172 181 175 177 173 171 170 169 167 167 167 169 171 175 176 177
270 292 322 65 113 160 155 120 29 79 138 150 156 163 168 167 171 184 186 179 185 179 179 176 176 175 175 176 178 180 184 185
281 287 303 54 74 155 133 122 113 97 122 157 164 169 175 177 186 194 196 198 183 184 188 184 182 182 185 184 185 186 191 190
277 286 305 29 141 166 70 122 135 141 143 170 188 184 184 184 185 192 194 201 191 196 195 194 163 192 199 198 195 199 200 194
270 278 283 216 290 215 146 152 160 197 212 186 188 207 194 189 191 192 195 198 198 193 196 215 195 210 218 197 190 200 203 198
264 277 290 284 213 288 177 159 171 182 190 193 191 202 204 194 194 195 193 195 199 197 193 204 213 215 225 197 200 216 216 218
274 261 258 279 286 257 202 182 179 191 183 178 188 198 204 195 197 197 194 196 202 203 196 206 202 209 219 207 212 217 225 227
286 298 258 246 256 265 236 172 187 194 186 184 189 197 191 195 200 194 196 199 205 210 210 213 212 207 204 199 208 206 216 223
264 245 228 201 235 261 277 280 201 198 196 189 194 197 193 194 199 201 201 202 208 214 221 222 221 213 216 209 209 214 212 224
243 258 234 197 213 230 243 260 259 272 188 192 193 197 198 199 202 205 206 208 211 218 223 225 223 217 217 214 215 218 222 224
309 321 38 108 124 232 259 340 340 333 239 198 222 211 206 204 204 208 209 211 211 213 222 220 218 220 214 219 215 217 215 223
310 316 343 312 349 352 354 325 318 318 317 328 243 21 225 209 206 208 214 217 215 214 218 221 220 223 223 220 219 220 218 217
263 293 331 1 350 333 304 301 318 39 46 42 38 36 34 44 312 223 217 218 220 218 217 221 225 221 222 223 221 223 222 219
307 48 272 61 290 351 40 53 37 35 34 36 33 33 39 38 38 32 305 263 252 229 220 221 222 222 219 221 220 225 226 221